Home   Weather   Manchester   Past weeks
Flag for USA

Past Weather in Manchester, New Hampshire, USA — Yesterday and Last 2 Weeks

Now
48 °F

Clear.


Feels Like: 48 °F
Forecast: 70 / 41 °F
Wind: No wind

Location: Manchester Airport

Current Time: Sep 19, 2019 at 12:38:14 am

Latest Report: Sep 18, 2019 at 11:53 pm


Visibility: 10 mi

Pressure: 30.38 "Hg

Humidity: 80%

Dew Point: 42 °F

Location of ManchesterLocation

Past Weather in Manchester — Graph

°F

Manchester Temperature Yesterday

Maximum temperature yesterday: 64 °F (at 2:53 pm)
Minimum temperature yesterday: 49 °F (at 10:53 pm)
Average temperature yesterday: 57 °F

High & Low Weather Summary for the Past Weeks

 TemperatureHumidityPressure
High85 °F (Sep 11, 2:53 pm)100% (Sep 15, 12:53 am)30.56 "Hg (Sep 15, 12:53 am)
Low47 °F (Sep 14, 2:53 am)32% (Sep 13, 3:53 pm)29.72 "Hg (Sep 7, 2:53 pm)
Average63 °F69%30.14 "Hg
* Reported Sep 3 10:53 pm — Sep 18 10:53 pm, Manchester. Weather by CustomWeather, © 2019

Note: Actual official high and low records may vary slightly from our data, if they occured in-between our weather recording intervals... More about our weather records

Advertising

Manchester Weather History for the Previous 24 Hours

Scroll right to see more
 ConditionsComfort  
Time TempWeatherWind HumidityBarometerVisibility
10:53 pm
Wed, Sep 18
49 °FClear.3 mph77%30.39 "Hg10 mi
9:53 pm50 °FClear.3 mph77%30.39 "Hg10 mi
8:53 pm52 °FClear.No wind72%30.37 "Hg10 mi
7:53 pm55 °FClear.No wind62%30.35 "Hg10 mi
6:53 pm59 °FClear.8 mph54%30.34 "Hg10 mi
5:53 pm63 °FSunny.7 mph38%30.32 "Hg10 mi
4:53 pm63 °FSunny.7 mph37%30.33 "Hg10 mi
3:53 pm64 °FPassing clouds.8 mph37%30.32 "Hg10 mi
2:53 pm64 °FPassing clouds.8 mph35%30.32 "Hg10 mi
1:53 pm63 °FPassing clouds.10 mph38%30.33 "Hg10 mi
12:53 pm62 °FPartly sunny.13 mph38%30.34 "Hg10 mi
11:53 am60 °FBroken clouds.10 mph42%30.34 "Hg10 mi
10:53 am60 °FBroken clouds.13 mph44%30.34 "Hg10 mi
9:53 am57 °FPartly sunny.10 mph47%30.34 "Hg10 mi
8:53 am55 °FPartly sunny.8 mph55%30.34 "Hg10 mi
7:53 am53 °FPartly sunny.8 mph59%30.32 "Hg10 mi
6:53 am53 °FPartly sunny.5 mph59%30.30 "Hg10 mi
5:53 am54 °FPassing clouds.7 mph59%30.28 "Hg10 mi
4:53 am54 °FPassing clouds.6 mph62%30.27 "Hg10 mi
3:53 am55 °FPassing clouds.6 mph59%30.26 "Hg10 mi
2:53 am56 °FPassing clouds.9 mph58%30.26 "Hg10 mi
1:53 am57 °FPassing clouds.8 mph53%30.25 "Hg10 mi
12:53 am59 °FPassing clouds.10 mph62%30.25 "Hg10 mi
Weather by CustomWeather, © 2019

See weather overview